Location: Dugenta
(41.1333°N, 14.4500°E)
Time: 10:36:18
(UTC+00:00)

Cosmos 2278 Rocket - Pass Details

Date: 03 March 2021
Orbit: 842 x 845 km, 71.0° (Epoch: 20 April)

Event Time Altitude Azimuth Distance (km) Brightness Sun altitude
Rises 20:25:38 0° 332° (NNW) 3,411 6.0 -39.0°
Reaches altitude 10° 20:28:07 10° 329° (NNW) 2,471 5.2 -39.4°
Enters shadow 20:30:12 23° 323° (NW) 1,722 4.2 -39.8°
